{"data":{"norad_id":45727,"epoch":"2026-05-25T02:28:29.415936Z","epoch_age_seconds":65879,"freshness":"FRESH","line1":"1 45727U 20037E   26145.10311824  .00001225  00000+0  91845-4 0  9995","line2":"2 45727  97.8150 336.0769 0010359 226.0206 134.0166 15.04552405322028","mean_motion":15.04552405,"eccentricity":0.0010359,"inclination_deg":97.815,"raan_deg":336.0769,"arg_perigee_deg":226.0206,"mean_anomaly_deg":134.0166,"bstar":9.1845e-5,"rev_number":32202,"period_min":95.7095276452,"perigee_km":545.70012400175,"apogee_km":560.05980494875,"semimajor_km":6931.0169644752,"source":"CELESTRAK","updated_at":"2026-05-25T13:38:25.530756Z"}}